{"data":{"norad_id":62923,"epoch":"2026-09-20T22:59:29.796864Z","epoch_age_seconds":128689,"freshness":"FRESH","line1":"1 62923U 25027S   26263.95798376  .00015607  00000+0  57533-3 0  9995","line2":"2 62923  43.0036 106.3067 0001971 257.9086 102.1545 15.27588564 91401","mean_motion":15.27588564,"eccentricity":0.0001971,"inclination_deg":43.0036,"raan_deg":106.3067,"arg_perigee_deg":257.9086,"mean_anomaly_deg":102.1545,"bstar":0.00057533,"rev_number":9140,"period_min":94.266220233369,"perigee_km":481.67111773739,"apogee_km":484.37578718775,"semimajor_km":6861.1604524626,"source":"CELESTRAK","updated_at":"2026-09-22T09:00:49.709755Z"}}